Date String (YYYY-MM-DD hh:mm:ss) UTC,Instrument flags,Ambient pressure (hPa),Sample flow (lpm),Bypass flow (lpm),Sample temperature (°C),Ambient temperature (°C),ASC tube jacket temperature (°C),LED temperature (°C),Box temperature (°C),Sample RH (%),Span deviation,Mass concentration (μg/m³),Mass concentration (μg/m³),Mass concentration (μg/m³)
DateTimeUTC,F1_M11,P_M11,Q1_M11,Q2_M11,T1_M11,T2_M11,T3_M11,T4_M11,T5_M11,U1_M11,ZSPAN_M11,X0_M11,X2_M11,X1_M11
2022-11-30 00:00:00,,0821.8,4.99,0.00,22.3,21.1,00.0,31.2,24.1,09.5,0000.0,0007.50,0003.73,0003.39
2022-11-30 00:01:00,,0821.8,5.01,0.00,22.3,21.0,00.0,31.2,24.1,09.5,0000.0,0007.49,0003.76,0003.41
2022-11-30 00:02:00,,0821.9,5.01,0.00,22.3,21.0,00.0,31.2,24.1,09.5,0000.0,0007.88,0003.76,0003.42
2022-11-30 00:03:00,,0821.8,4.99,0.00,22.2,20.9,00.0,31.2,24.0,09.5,0000.0,0008.03,0003.77,0003.43
2022-11-30 00:04:00,,0822.0,5.00,0.00,22.2,20.8,00.0,31.2,24.0,09.4,0000.0,0008.09,0003.77,0003.43
2022-11-30 00:05:00,,0821.9,5.01,0.00,22.2,20.7,00.0,31.2,24.0,09.5,0000.0,0007.93,0003.78,0003.43
2022-11-30 00:06:00,,0822.0,4.99,0.00,22.2,20.7,00.0,31.2,23.9,09.6,0000.0,0007.77,0003.78,0003.45
2022-11-30 00:07:00,,0821.9,4.99,0.00,22.1,20.6,00.0,31.2,23.9,09.6,0000.0,0008.00,0003.80,0003.47
2022-11-30 00:08:00,,0822.1,5.00,0.00,22.1,20.6,00.0,31.1,23.9,09.5,0000.0,0008.55,0003.85,0003.49
2022-11-30 00:09:00,,0822.0,5.01,0.00,22.1,20.9,00.0,31.1,23.9,09.5,0000.0,0008.55,0003.87,0003.51
2022-11-30 00:10:00,,0822.1,5.01,0.00,22.2,21.7,00.0,31.0,24.1,09.5,0000.0,0008.74,0003.92,0003.54
2022-11-30 00:11:00,,0822.2,4.99,0.00,22.3,22.1,00.0,31.1,24.3,09.4,0000.0,0009.26,0003.94,0003.55
2022-11-30 00:12:00,,0822.2,4.99,0.00,22.3,21.8,00.0,31.1,24.2,09.4,0000.0,0009.35,0003.95,0003.54
2022-11-30 00:13:00,,0822.2,5.03,0.00,22.3,21.5,00.0,31.1,24.2,09.4,0000.0,0009.06,0003.95,0003.55
2022-11-30 00:14:00,,0822.1,4.98,0.00,22.3,21.3,00.0,31.2,24.1,09.5,0000.0,0008.71,0003.94,0003.56
2022-11-30 00:15:00,,0822.1,5.00,0.00,22.3,21.1,00.0,31.2,24.1,09.6,0000.0,0008.64,0003.98,0003.59
2022-11-30 00:16:00,,0822.1,5.02,0.00,22.2,21.0,00.0,31.2,24.0,09.5,0000.0,0008.58,0003.99,0003.60
2022-11-30 00:17:00,,0822.1,5.00,0.00,22.2,20.9,00.0,31.2,24.0,09.5,0000.0,0008.68,0004.04,0003.61
2022-11-30 00:18:00,,0822.1,4.99,0.00,22.2,20.9,00.0,31.2,24.0,09.5,0000.0,0008.69,0004.08,0003.62
2022-11-30 00:19:00,,0822.2,4.99,0.00,22.2,20.9,00.0,31.1,24.0,09.5,0000.0,0007.67,0004.06,0003.63
2022-11-30 00:20:00,,0822.2,5.00,0.00,22.2,20.8,00.0,31.1,23.9,09.5,0000.0,0007.70,0004.07,0003.63
2022-11-30 00:21:00,,0822.3,5.00,0.00,22.2,20.7,00.0,31.1,23.9,09.5,0000.0,0007.73,0004.06,0003.62
2022-11-30 00:22:00,,0822.3,5.00,0.00,22.1,20.6,00.0,31.1,23.9,09.5,0000.0,0007.30,0004.09,0003.62
2022-11-30 00:23:00,,0822.3,5.00,0.00,22.1,20.5,00.0,31.1,23.8,09.5,0000.0,0007.37,0004.06,0003.62
2022-11-30 00:24:00,,0822.3,5.01,0.00,22.1,20.9,00.0,31.0,23.9,09.5,0000.0,0007.38,0004.06,0003.62
2022-11-30 00:25:00,,0822.3,5.00,0.00,22.2,21.7,00.0,31.0,24.1,09.5,0000.0,0007.47,0004.07,0003.62
2022-11-30 00:26:00,,0822.2,5.00,0.00,22.3,22.4,00.0,31.0,24.3,09.5,0000.0,0007.55,0004.07,0003.60
2022-11-30 00:27:00,,0822.2,5.00,0.00,22.3,22.2,00.0,31.1,24.3,09.5,0000.0,0007.52,0004.06,0003.60
2022-11-30 00:28:00,,0822.2,5.00,0.00,22.3,21.8,00.0,31.1,24.2,09.5,0000.0,0007.54,0004.06,0003.60
2022-11-30 00:29:00,,0822.2,5.00,0.00,22.3,21.5,00.0,31.1,24.1,09.6,0000.0,0007.54,0004.05,0003.59
2022-11-30 00:30:00,,0822.3,4.99,0.00,22.3,21.2,00.0,31.1,24.0,09.6,0000.0,0007.57,0004.04,0003.59
2022-11-30 00:31:00,,0822.4,5.01,0.00,22.2,21.0,00.0,31.2,23.9,09.5,0000.0,0007.78,0004.07,0003.59
2022-11-30 00:32:00,,0822.3,5.01,0.00,22.2,20.7,00.0,31.1,23.9,09.5,0000.0,0007.90,0004.08,0003.61
2022-11-30 00:33:00,,0822.2,4.98,0.00,22.1,20.5,00.0,31.1,23.8,09.5,0000.0,0007.81,0004.05,0003.62
2022-11-30 00:34:00,,0822.3,5.00,0.00,22.1,20.4,00.0,31.1,23.8,09.6,0000.0,0007.99,0004.08,0003.62
2022-11-30 00:35:00,,0822.3,5.00,0.00,22.0,20.3,00.0,31.1,23.7,09.6,0000.0,0007.99,0004.09,0003.63
2022-11-30 00:36:00,,0822.3,5.00,0.00,22.0,20.3,00.0,31.1,23.7,09.7,0000.0,0007.94,0004.10,0003.63
2022-11-30 00:37:00,,0822.3,5.00,0.00,22.0,20.2,00.0,31.1,23.6,09.7,0000.0,0007.80,0004.08,0003.62
2022-11-30 00:38:00,,0822.3,5.01,0.00,21.9,20.3,00.0,31.0,23.6,09.7,0000.0,0007.75,0004.06,0003.62
2022-11-30 00:39:00,,0822.2,5.01,0.00,22.0,21.1,00.0,30.9,23.8,09.7,0000.0,0007.66,0004.03,0003.60
2022-11-30 00:40:00,,0822.3,4.99,0.00,22.1,21.9,00.0,30.9,24.0,09.7,0000.0,0007.67,0004.00,0003.59
2022-11-30 00:41:00,,0822.3,5.01,0.00,22.2,22.1,00.0,31.0,24.1,09.7,0000.0,0007.57,0003.96,0003.57
2022-11-30 00:42:00,,0822.4,5.00,0.00,22.2,21.8,00.0,31.0,24.1,09.7,0000.0,0007.25,0003.92,0003.56
2022-11-30 00:43:00,,0822.4,5.00,0.00,22.1,21.4,00.0,31.0,24.0,09.6,0000.0,0007.04,0003.91,0003.55
2022-11-30 00:44:00,,0822.3,5.00,0.00,22.1,21.2,00.0,31.0,23.9,09.6,0000.0,0007.03,0003.91,0003.53
2022-11-30 00:45:00,,0822.2,5.00,0.00,22.1,20.9,00.0,31.0,23.8,09.7,0000.0,0007.07,0003.89,0003.53
2022-11-30 00:46:00,,0822.2,5.00,0.00,22.0,20.5,00.0,31.0,23.7,09.8,0000.0,0007.95,0003.87,0003.52
2022-11-30 00:47:00,,0822.3,5.01,0.00,22.0,20.2,00.0,31.0,23.6,09.8,0000.0,0008.00,0003.89,0003.52
2022-11-30 00:48:00,,0822.3,5.00,0.00,21.9,19.9,00.0,31.0,23.5,09.8,0000.0,0008.08,0003.91,0003.54
2022-11-30 00:49:00,,0822.3,5.01,0.00,21.8,19.7,00.0,31.0,23.3,09.8,0000.0,0008.77,0003.95,0003.57
2022-11-30 00:50:00,,0822.4,5.01,0.00,21.7,19.7,00.0,30.9,23.3,09.9,0000.0,0009.10,0003.98,0003.60
2022-11-30 00:51:00,,0822.4,5.00,0.00,21.7,19.7,00.0,30.9,23.3,09.9,0000.0,0009.02,0003.99,0003.63
2022-11-30 00:52:00,,0822.4,4.99,0.00,21.7,20.5,00.0,30.8,23.5,09.8,0000.0,0009.28,0004.07,0003.68
2022-11-30 00:53:00,,0822.4,4.99,0.00,21.9,21.5,00.0,30.8,23.7,09.6,0000.0,0009.52,0004.14,0003.73
2022-11-30 00:54:00,,0822.3,4.98,0.00,21.9,21.6,00.0,30.8,23.9,09.6,0000.0,0009.59,0004.19,0003.77
2022-11-30 00:55:00,,0822.3,5.00,0.00,21.9,21.3,00.0,30.9,23.8,09.6,0000.0,0009.64,0004.24,0003.83
2022-11-30 00:56:00,,0822.4,5.00,0.00,21.9,21.0,00.0,30.9,23.8,09.6,0000.0,0009.45,0004.30,0003.88
2022-11-30 00:57:00,,0822.4,5.00,0.00,21.9,20.8,00.0,30.9,23.7,09.7,0000.0,0008.68,0004.35,0003.92
2022-11-30 00:58:00,,0822.4,5.00,0.00,21.9,20.6,00.0,30.9,23.7,09.6,0000.0,0008.68,0004.37,0003.94
2022-11-30 00:59:00,,0822.4,5.00,0.00,21.8,20.3,00.0,30.9,23.6,09.6,0000.0,0008.66,0004.38,0003.95
